Location: Isle of Man Observatory
(54.1776°N, 4.6264°W)
Time: 08:36:49
(UTC+02:00)

Amateur Radio Satellites - All Passes

Search period start: 24 September 2017 08:06
Search period end: 25 September 2017 08:06
Location: Isle of Man Observatory, 54.1776°N, 4.6264°W

Satellite Date Start Highest point End Downlink Frequencies (MHz)
Time Altitude Azimuth
CUTE 1.7 + AOD 2 24 Sep 08:09:41 08:11:01 11° 84° (E) 08:12:21 437.475
FO-29 24 Sep 08:16:52 08:19:42 15° 47° (NE) 08:22:30 435.910
STARS 24 Sep 08:22:12 08:25:00 17° 271° (W) 08:27:49 437.465
XW-2D 24 Sep 08:28:34 08:32:23 61° 102° (ESE) 08:36:08 145.860 - 145.880
CUBEBUG 2 24 Sep 08:40:30 08:43:20 16° 86° (E) 08:46:11 437.445
XW-2F 24 Sep 08:40:41 08:44:31 75° 102° (ESE) 08:48:18 145.980 - 146.000
XW-2B 24 Sep 08:40:56 08:44:47 79° 105° (ESE) 08:48:35 145.730 - 145.750
AO-7 24 Sep 08:42:00 08:48:53 31° 318° (NW) 08:55:47 .
UWE-3 24 Sep 08:47:50 08:49:22 11° 83° (E) 08:50:54 435.000/436.395/437.385
XW-2C 24 Sep 09:02:22 09:06:11 62° 287° (WNW) 09:09:56 145.795 - 145.815
NUDT-PHONESAT 24 Sep 09:03:02 09:06:49 81° 290° (WNW) 09:10:33 437.300
TIGRISAT 24 Sep 09:08:28 09:09:14 10° 47° (NE) 09:10:01 435.000
DOVE 4 24 Sep 09:11:51 09:15:10 23° 300° (WNW) 09:18:33 437.250
XW-2A 24 Sep 09:13:10 09:15:32 17° 91° (E) 09:17:53 145.665 - 145.685
SEEDS 24 Sep 09:14:57 09:18:38 28° 94° (E) 09:22:16 437.485
LilacSat-2 24 Sep 09:15:09 09:18:51 44° 291° (WNW) 09:22:30 437.200
CUTE-I 24 Sep 09:18:19 09:23:40 77° 289° (WNW) 09:28:59 437.470
AO-73 24 Sep 09:30:52 09:33:28 15° 85° (E) 09:36:02 145.935
KAITUO 1B 24 Sep 09:32:16 09:35:50 40° 292° (WNW) 09:39:20 145.475/437.950
ZACube-1 24 Sep 09:33:36 09:36:39 17° 87° (E) 09:39:40 437.345
PRISM 24 Sep 09:36:48 09:37:25 10° 49° (NE) 09:38:02 437.425
AAUSAT CUBESAT 2 24 Sep 09:36:51 09:40:11 23° 92° (E) 09:43:29 437.432
HO-68 24 Sep 09:41:21 09:48:32 64° 103° (ESE) 09:55:40 435.675
STRAND 1 24 Sep 09:42:43 09:47:14 31° 266° (W) 09:51:48 437.568
CUTE 1.7 + AOD 2 24 Sep 09:43:21 09:47:38 77° 104° (ESE) 09:51:51 437.475
FO-29 24 Sep 09:58:33 10:03:58 64° 69° (ENE) 10:09:07 435.910
XW-2D 24 Sep 10:03:31 10:06:11 18° 301° (WNW) 10:08:50 145.860 - 145.880
RS-15 24 Sep 10:10:10 10:22:25 60° 336° (NNW) 10:34:24 29.354- 29.394
XW-2F 24 Sep 10:15:51 10:18:09 16° 303° (WNW) 10:20:27 145.980 - 146.000
CUBEBUG 2 24 Sep 10:15:53 10:20:35 89° 289° (WNW) 10:25:21 437.445
XW-2B 24 Sep 10:16:13 10:18:27 15° 303° (WNW) 10:20:42 145.730 - 145.750
UNISAT 6 24 Sep 10:17:25 10:21:23 34° 64° (ENE) 10:25:29 437.425
UWE-3 24 Sep 10:22:01 10:26:41 68° 102° (ESE) 10:31:21 435.000/436.395/437.385
AO-7 24 Sep 10:34:56 10:39:11 15° 344° (NNW) 10:43:26 .
NUDT-PHONESAT 24 Sep 10:38:32 10:40:04 12° 306° (NW) 10:41:35 437.300
XW-2C 24 Sep 10:39:04 10:39:36 10° 308° (NW) 10:40:07 145.795 - 145.815
TIGRISAT 24 Sep 10:40:40 10:44:54 49° 68° (ENE) 10:49:16 435.000
O/OREOS (USA 219) 24 Sep 10:42:13 10:44:25 13° 25° (NNE) 10:46:36 437.305
XW-2A 24 Sep 10:45:10 10:48:31 47° 290° (WNW) 10:51:49 145.665 - 145.685
SEEDS 24 Sep 10:50:30 10:54:26 40° 293° (WNW) 10:58:20 437.485
CUTE-I 24 Sep 10:59:23 11:02:58 19° 310° (NW) 11:06:33 437.470
DELFI C3 24 Sep 11:02:12 11:04:53 18° 90° (E) 11:07:34 145.870
Oscar 11 24 Sep 11:04:28 11:08:49 65° 102° (ESE) 11:13:08 .
AO-73 24 Sep 11:05:45 11:10:23 89° 116° (ESE) 11:14:57 145.935
PRISM 24 Sep 11:07:51 11:11:51 55° 69° (ENE) 11:15:52 437.425
ZACube-1 24 Sep 11:08:52 11:13:29 80° 288° (WNW) 11:18:05 437.345
AAUSAT CUBESAT 2 24 Sep 11:11:54 11:15:53 47° 291° (WNW) 11:19:49 437.432
CUTE 1.7 + AOD 2 24 Sep 11:20:06 11:22:58 18° 304° (WNW) 11:25:49 437.475
AIST 2D 24 Sep 11:20:31 11:22:55 17° 60° (ENE) 11:25:19 435.315
QB50P2 24 Sep 11:21:26 11:23:28 13° 52° (NE) 11:25:29 145.880/145.840
EO-88 24 Sep 11:26:37 11:29:07 17° 90° (E) 11:31:38 145.990 - 145.960
HO-68 24 Sep 11:29:29 11:36:00 39° 306° (NW) 11:42:31 435.675
FO-29 24 Sep 11:45:10 11:49:35 24° 269° (W) 11:53:49 435.910
CUBEBUG 2 24 Sep 11:53:30 11:56:37 18° 305° (NW) 11:59:46 437.445
UNISAT 6 24 Sep 11:54:01 11:58:06 37° 264° (W) 12:02:18 437.425
NANOSAT C BR1 24 Sep 11:55:05 11:58:10 20° 58° (ENE) 12:01:16 145.865
UWE-3 24 Sep 11:59:09 12:02:44 23° 302° (WNW) 12:06:21 435.000/436.395/437.385
Max Valier Satellite 24 Sep 11:59:46 12:03:26 47° 99° (E) 12:07:03 145.860
TIGRISAT 24 Sep 12:18:12 12:21:52 25° 268° (W) 12:25:37 435.000
O/OREOS (USA 219) 24 Sep 12:20:47 12:25:09 39° 49° (NE) 12:29:29 437.305
LO-87 24 Sep 12:22:25 12:23:38 11° 87° (E) 12:24:51 145.935 - 145.965
DUCHIFAT 1 24 Sep 12:22:33 12:26:12 29° 62° (ENE) 12:29:52 145.980
AO-7 24 Sep 12:24:47 12:28:45 14° 12° (NNE) 12:32:43 .
RS-15 24 Sep 12:25:26 12:37:26 53° 9° (N) 12:48:59 29.354- 29.394
DELFI C3 24 Sep 12:36:09 12:40:02 59° 289° (WNW) 12:43:52 145.870
POLYITAN 1 24 Sep 12:36:33 12:40:35 46° 67° (ENE) 12:44:41 437.675
EO-79 24 Sep 12:40:40 12:44:44 50° 68° (ENE) 12:48:51 145.935-145.965
Oscar 11 24 Sep 12:41:18 12:44:35 21° 302° (WNW) 12:47:50 .
Gurwin Techsat 1B 24 Sep 12:42:18 12:44:14 12° 42° (NE) 12:46:09 435.225
M-CUBED/EXP-1 PRIME 24 Sep 12:42:39 12:46:20 33° 59° (ENE) 12:49:48 437.505
AO-73 24 Sep 12:42:58 12:46:01 18° 305° (NW) 12:49:03 145.935
PRISM 24 Sep 12:44:23 12:47:28 20° 269° (W) 12:50:32 437.425
YUBILEINY 24 Sep 12:44:49 12:51:57 30° 78° (ENE) 12:59:04 435.215
ZACube-1 24 Sep 12:46:20 12:49:05 16° 307° (NW) 12:51:50 437.345
Oscar 19 24 Sep 12:51:39 12:54:55 17° 49° (NE) 12:58:10 437.125/150
AIST 2D 24 Sep 12:52:16 12:55:45 56° 259° (W) 12:59:17 435.315
QB50P2 24 Sep 12:54:18 12:58:31 72° 72° (ENE) 13:02:47 145.880/145.840
BUGSAT 1 24 Sep 12:56:34 12:59:37 21° 58° (ENE) 13:02:42 437.445
EO-88 24 Sep 12:59:29 13:03:06 53° 289° (WNW) 13:06:40 145.990 - 145.960
ESTCUBE 1 24 Sep 13:16:50 13:20:50 30° 94° (E) 13:24:47 437.505/2401.250
HO-68 24 Sep 13:18:21 13:21:55 15° 330° (NNW) 13:25:30 435.675
NANOSAT C BR1 24 Sep 13:29:18 13:33:29 66° 257° (WSW) 13:37:43 145.865
Max Valier Satellite 24 Sep 13:34:06 13:37:01 21° 299° (WNW) 13:39:54 145.860
SPROUT 24 Sep 13:39:27 13:42:01 15° 87° (E) 13:44:36 437.525
VELOX 1 24 Sep 13:44:42 13:46:48 13° 86° (E) 13:48:53 145.980
LO-87 24 Sep 13:53:58 13:57:35 83° 286° (WNW) 14:01:12 145.935 - 145.965
DUCHIFAT 1 24 Sep 13:57:47 14:01:45 40° 262° (W) 14:05:46 145.980
O/OREOS (USA 219) 24 Sep 14:00:18 14:04:35 39° 250° (WSW) 14:08:51 437.305
AO-7 24 Sep 14:12:17 14:18:53 27° 39° (NE) 14:25:28 .
POLYITAN 1 24 Sep 14:13:03 14:16:35 25° 267° (W) 14:20:09 437.675
DELFI C3 24 Sep 14:13:43 14:13:59 10° 309° (NW) 14:14:14 145.870
M-CUBED/EXP-1 PRIME 24 Sep 14:16:57 14:20:46 34° 256° (WSW) 14:24:21 437.505
EO-79 24 Sep 14:17:21 14:20:45 23° 268° (W) 14:24:12 145.935-145.965
Gurwin Techsat 1B 24 Sep 14:17:57 14:22:59 45° 64° (ENE) 14:28:03 435.225
Oscar 19 24 Sep 14:28:15 14:33:26 71° 69° (ENE) 14:38:38 437.125/150
BUGSAT 1 24 Sep 14:30:39 14:34:38 59° 258° (WSW) 14:38:42 437.445
QB50P2 24 Sep 14:32:04 14:34:49 17° 272° (W) 14:37:35 145.880/145.840
YUBILEINY 24 Sep 14:39:09 14:47:52 82° 282° (WNW) 14:56:39 435.215
RS-15 24 Sep 14:39:24 14:51:42 80° 40° (NE) 15:03:21 29.354- 29.394
DX 1 24 Sep 14:51:11 14:53:58 17° 89° (E) 14:56:45 434.975-435.025
ESTCUBE 1 24 Sep 14:53:31 14:57:47 43° 294° (WNW) 15:02:01 437.505/2401.250
NO-84 24 Sep 15:03:52 15:06:56 24° 143° (SE) 15:09:48 435.350 FM
50 SAT 24 Sep 15:11:36 15:14:27 26° 96° (E) 15:17:17 437.505
SPROUT 24 Sep 15:14:10 15:18:29 80° 288° (WNW) 15:22:47 437.525
VELOX 1 24 Sep 15:19:32 15:23:57 85° 105° (ESE) 15:28:21 145.980
LO-87 24 Sep 15:29:04 15:30:24 12° 305° (NW) 15:31:44 145.935 - 145.965
ITAMSAT 1 24 Sep 15:35:21 15:39:46 29° 57° (ENE) 15:44:12 435.822/435.867
Gurwin Techsat 1B 24 Sep 15:58:10 16:03:04 37° 264° (W) 16:08:00 435.225
AO-7 24 Sep 16:02:13 16:10:30 72° 62° (ENE) 16:18:47 .
SO-50 24 Sep 16:04:19 16:08:35 44° 126° (SE) 16:12:54 436.795
Oscar 19 24 Sep 16:09:14 16:13:16 22° 270° (W) 16:17:20 437.125/150
MOZHAYETS 4 24 Sep 16:14:09 16:16:00 12° 83° (E) 16:17:52
UKube-1 24 Sep 16:17:59 16:22:18 65° 103° (ESE) 16:26:35 .
DX 1 24 Sep 16:26:20 16:30:42 76° 288° (WNW) 16:35:01 434.975-435.025
PCSat 24 Sep 16:36:23 16:41:37 50° 121° (ESE) 16:46:52 145.827
YUBILEINY 24 Sep 16:39:06 16:46:12 27° 308° (NW) 16:53:20 435.215
NO-84 24 Sep 16:40:25 16:44:01 75° 162° (SSE) 16:47:19 435.350 FM
50 SAT 24 Sep 16:44:03 16:46:57 28° 294° (WNW) 16:49:51 437.505
ITUPSAT 1 24 Sep 16:48:25 16:52:14 23° 91° (E) 16:56:02 437.325
HO-68 24 Sep 16:49:12 16:51:17 11° 23° (NNE) 16:53:21 435.675
SPROUT 24 Sep 16:51:22 16:53:44 15° 307° (NW) 16:56:05 437.525
RS-15 24 Sep 16:52:24 17:03:25 45° 248° (WSW) 17:13:55 29.354- 29.394
VELOX 1 24 Sep 16:56:57 16:59:52 18° 306° (NW) 17:02:45 145.980
DOVE 4 24 Sep 17:09:37 17:12:35 19° 58° (ENE) 17:15:30 437.250
ITAMSAT 1 24 Sep 17:13:52 17:18:58 59° 258° (WSW) 17:24:07 435.822/435.867
BEESAT 24 Sep 17:24:12 17:28:48 44° 99° (E) 17:33:23 436.000
CUTE-I 24 Sep 17:30:12 17:33:15 16° 47° (NE) 17:36:18 437.470
XW-2D 24 Sep 17:44:20 17:45:58 12° 54° (NE) 17:47:35 145.860 - 145.880
SO-50 24 Sep 17:44:45 17:49:06 45° 327° (NNW) 17:53:29 436.795
MOZHAYETS 4 24 Sep 17:49:20 17:54:01 74° 104° (ESE) 17:58:39
UKube-1 24 Sep 17:54:42 17:57:57 21° 303° (WNW) 18:01:12 .
XW-2F 24 Sep 17:55:33 17:57:38 14° 56° (NE) 17:59:43 145.980 - 146.000
XW-2B 24 Sep 17:56:00 17:58:14 15° 56° (ENE) 18:00:27 145.730 - 145.750
AO-7 24 Sep 17:56:24 18:03:55 36° 265° (W) 18:11:28 .
DX 1 24 Sep 18:03:53 18:06:12 14° 308° (NW) 18:08:30 434.975-435.025
KKS-1 24 Sep 18:05:53 18:07:32 12° 85° (E) 18:09:09 437.445
NUDT-PHONESAT 24 Sep 18:15:53 18:18:19 17° 58° (ENE) 18:20:46 437.300
XW-2C 24 Sep 18:16:26 18:19:26 22° 61° (ENE) 18:22:27 145.795 - 145.815
CUBESAT XI-V 24 Sep 18:17:43 18:22:03 37° 96° (E) 18:26:19 437.345
NO-84 24 Sep 18:18:02 18:21:28 75° 2° (N) 18:24:36 435.350 FM
PCSat 24 Sep 18:19:54 18:25:09 46° 323° (NW) 18:30:23 145.827
ITUPSAT 1 24 Sep 18:25:42 18:30:29 64° 291° (WNW) 18:35:14 437.325
LilacSat-2 24 Sep 18:29:11 18:32:34 29° 64° (ENE) 18:35:59 437.200
HO-68 24 Sep 18:30:56 18:36:48 28° 47° (NE) 18:42:40 435.675
KAITUO 1B 24 Sep 18:44:31 18:47:52 30° 65° (ENE) 18:51:13 145.475/437.950
DOVE 4 24 Sep 18:45:35 18:49:54 71° 256° (WSW) 18:54:06 437.250
YUBILEINY 24 Sep 18:45:54 18:47:12 10° 340° (NNW) 18:48:30 435.215
ITAMSAT 1 24 Sep 18:58:26 18:59:34 11° 278° (W) 19:00:43 435.822/435.867
BEESAT 24 Sep 19:02:11 19:06:30 34° 299° (WNW) 19:10:48 436.000
CUTE-I 24 Sep 19:07:08 19:12:22 63° 68° (ENE) 19:17:38 437.470
CUTE 1.7 + AOD 2 24 Sep 19:07:42 19:10:53 20° 58° (ENE) 19:14:02 437.475
RS-15 24 Sep 19:09:44 19:12:09 11° 274° (W) 19:14:34 29.354- 29.394
XW-2D 24 Sep 19:15:38 19:19:29 78° 74° (ENE) 19:23:22 145.860 - 145.880
SO-50 24 Sep 19:26:53 19:30:33 23° 351° (N) 19:34:13 436.795
MOZHAYETS 4 24 Sep 19:27:15 19:30:43 21° 304° (WNW) 19:34:11
XW-2F 24 Sep 19:27:22 19:31:12 87° 253° (WSW) 19:35:05 145.980 - 146.000
XW-2B 24 Sep 19:28:01 19:31:53 82° 256° (WSW) 19:35:47 145.730 - 145.750
KKS-1 24 Sep 19:40:25 19:44:53 75° 105° (ESE) 19:49:20 437.445
CUBEBUG 2 24 Sep 19:44:43 19:48:20 26° 60° (ENE) 19:52:03 437.445
NUDT-PHONESAT 24 Sep 19:48:02 19:51:46 67° 258° (WSW) 19:55:33 437.300
XW-2C 24 Sep 19:49:37 19:53:22 49° 260° (W) 19:57:09 145.795 - 145.815
UWE-3 24 Sep 19:50:22 19:53:37 20° 57° (ENE) 19:56:55 435.000/436.395/437.385
XW-2A 24 Sep 19:50:37 19:53:04 19° 61° (ENE) 19:55:33 145.665 - 145.685
CUBESAT XI-V 24 Sep 19:55:09 19:59:26 37° 296° (WNW) 20:03:39 437.345
NO-84 24 Sep 19:55:37 19:58:48 56° 204° (SSW) 20:01:45 435.350 FM
STARS 24 Sep 20:02:24 20:06:45 56° 101° (ESE) 20:11:06 437.465
LilacSat-2 24 Sep 20:03:13 20:06:47 34° 264° (W) 20:10:23 437.200
ITUPSAT 1 24 Sep 20:04:57 20:07:27 14° 312° (NW) 20:09:58 437.325
PCSat 24 Sep 20:05:32 20:09:50 23° 348° (NNW) 20:14:07 145.827
SEEDS 24 Sep 20:12:30 20:16:34 46° 68° (ENE) 20:20:38 437.485
HO-68 24 Sep 20:16:37 20:23:47 89° 67° (ENE) 20:31:01 435.675
KAITUO 1B 24 Sep 20:18:22 20:21:49 32° 264° (W) 20:25:18 145.475/437.950
Oscar 11 24 Sep 20:30:56 20:34:01 19° 57° (ENE) 20:37:07 .
AO-73 24 Sep 20:32:12 20:35:48 25° 60° (ENE) 20:39:29 145.935
AAUSAT CUBESAT 2 24 Sep 20:32:50 20:36:39 36° 66° (ENE) 20:40:29 437.432
ZACube-1 24 Sep 20:35:21 20:39:08 29° 62° (ENE) 20:43:00 437.345
BEESAT 3 24 Sep 20:36:00 20:38:09 14° 113° (ESE) 20:40:19 437.485
CUTE 1.7 + AOD 2 24 Sep 20:42:02 20:46:19 67° 258° (WSW) 20:50:36 437.475
CUTE-I 24 Sep 20:48:26 20:52:51 26° 268° (W) 20:57:17 437.470
XW-2D 24 Sep 20:52:15 20:54:11 13° 273° (W) 20:56:08 145.860 - 145.880
XW-2F 24 Sep 21:04:48 21:05:58 11° 275° (W) 21:07:06 145.980 - 146.000
XW-2B 24 Sep 21:05:54 21:06:44 11° 275° (W) 21:07:33 145.730 - 145.750
SO-50 24 Sep 21:08:28 21:12:17 26° 15° (NNE) 21:16:09 436.795
KKS-1 24 Sep 21:17:47 21:20:59 20° 304° (NW) 21:24:10 437.445
CUBEBUG 2 24 Sep 21:20:32 21:24:43 50° 261° (W) 21:29:04 437.445
Tancredo 1 24 Sep 21:21:27 21:23:00 14° 148° (SSE) 21:24:31 437.200
XW-2A 24 Sep 21:22:12 21:25:31 47° 260° (W) 21:28:53 145.665 - 145.685
UWE-3 24 Sep 21:25:15 21:29:36 71° 257° (WSW) 21:34:07 435.000/436.395/437.385
AO-85 24 Sep 21:31:49 21:34:16 16° 115° (ESE) 21:36:44 145.980
NO-84 24 Sep 21:33:58 21:35:33 13° 224° (SW) 21:37:05 435.350 FM
STARS 24 Sep 21:39:16 21:42:49 24° 301° (WNW) 21:46:21 437.465
STRAND 1 24 Sep 21:45:18 21:50:23 55° 101° (E) 21:55:26 437.568
SEEDS 24 Sep 21:48:54 21:52:27 25° 267° (W) 21:56:00 437.485
PCSat 24 Sep 21:50:40 21:55:00 23° 14° (NNE) 21:59:19 145.827
DELFI C3 24 Sep 21:53:29 21:56:45 26° 63° (ENE) 22:00:03 145.870
Oscar 11 24 Sep 22:05:20 22:09:42 74° 257° (WSW) 22:14:06 .
HO-68 24 Sep 22:06:50 22:12:28 24° 272° (W) 22:18:09 435.675
AO-73 24 Sep 22:07:27 22:11:45 54° 260° (W) 22:16:12 145.935
AAUSAT CUBESAT 2 24 Sep 22:08:27 22:12:10 31° 265° (W) 22:15:54 437.432
EO-88 24 Sep 22:10:23 22:13:15 22° 62° (ENE) 22:16:08 145.990 - 145.960
ZACube-1 24 Sep 22:11:01 22:15:14 46° 262° (W) 22:19:36 437.345
BEESAT 3 24 Sep 22:11:02 22:15:05 80° 132° (SE) 22:19:09 437.485
ISS 24 Sep 22:11:53 22:12:59 11° 141° (SE) 22:14:06 437.550
BEESAT 2 24 Sep 22:20:51 22:24:38 40° 125° (SE) 22:28:28 435.950
YUBILEINY 24 Sep 22:44:15 22:51:05 24° 49° (NE) 22:57:53 435.215
FO-29 24 Sep 22:44:16 22:49:01 30° 94° (E) 22:54:06 435.910
Max Valier Satellite 24 Sep 22:44:29 22:48:09 57° 72° (ENE) 22:51:51 145.860
nSIGHT-1 24 Sep 22:47:50 22:50:14 19° 149° (SSE) 22:52:38 .
ESTCUBE 1 24 Sep 22:48:58 22:50:52 13° 49° (NE) 22:52:47 437.505/2401.250
SO-50 24 Sep 22:48:59 22:53:32 62° 39° (NE) 22:58:07 436.795
Tancredo 1 24 Sep 22:54:26 22:56:58 38° 167° (SSE) 22:59:31 437.200
LO-87 24 Sep 23:04:32 23:06:30 14° 57° (ENE) 23:08:28 145.935 - 145.965
UWE-3 24 Sep 23:05:47 23:06:58 11° 278° (W) 23:08:10 435.000/436.395/437.385
AO-85 24 Sep 23:10:09 23:14:04 86° 319° (NW) 23:18:08 145.980
STRAND 1 24 Sep 23:24:53 23:29:20 31° 301° (WNW) 23:33:48 437.568
DELFI C3 24 Sep 23:27:37 23:31:22 41° 262° (W) 23:35:08 145.870
PCSat 24 Sep 23:34:22 23:39:39 48° 38° (NE) 23:44:54 145.827
UNISAT 6 24 Sep 23:38:17 23:42:27 31° 94° (E) 23:46:37 437.425
EO-88 24 Sep 23:43:10 23:46:41 44° 261° (W) 23:50:16 145.990 - 145.960
Oscar 11 24 Sep 23:45:15 23:46:39 11° 277° (W) 23:48:02 .
ISS 24 Sep 23:45:45 23:48:45 34° 160° (SSE) 23:51:48 437.550
BEESAT 3 24 Sep 23:49:29 23:53:03 28° 335° (NNW) 23:56:37 437.485
BEESAT 2 24 Sep 23:58:31 00:02:24 43° 326° (NW) 00:06:19 435.950
TIGRISAT 25 Sep 00:01:31 00:06:01 44° 98° (E) 00:10:31 435.000
PRISM 25 Sep 00:17:32 00:21:16 34° 97° (E) 00:24:59 437.425
Max Valier Satellite 25 Sep 00:19:52 00:22:20 17° 270° (W) 00:24:50 145.860
ESTCUBE 1 25 Sep 00:22:21 00:26:49 60° 70° (ENE) 00:31:19 437.505/2401.250
nSIGHT-1 25 Sep 00:22:57 00:26:05 46° 169° (SSE) 00:29:15 .
Tancredo 1 25 Sep 00:28:36 00:31:13 45° 187° (S) 00:33:49 437.200
FO-29 25 Sep 00:29:13 00:34:26 56° 293° (WNW) 00:40:09 435.910
SO-50 25 Sep 00:29:46 00:33:47 30° 239° (WSW) 00:37:48 436.795
LO-87 25 Sep 00:35:55 00:39:27 73° 258° (WSW) 00:43:02 145.935 - 145.965
SPROUT 25 Sep 00:38:35 00:42:10 27° 62° (ENE) 00:45:48 437.525
YUBILEINY 25 Sep 00:40:52 00:49:39 74° 76° (ENE) 00:58:24 435.215
VELOX 1 25 Sep 00:47:28 00:51:11 27° 60° (ENE) 00:54:53 145.980
AO-85 25 Sep 00:51:38 00:55:00 26° 339° (NNW) 00:58:31 145.980
NANOSAT C BR1 25 Sep 01:08:02 01:10:10 13° 86° (E) 01:12:18 145.865
UNISAT 6 25 Sep 01:14:51 01:19:17 45° 294° (WNW) 01:23:46 437.425
PCSat 25 Sep 01:17:56 01:23:07 47° 240° (WSW) 01:28:17 145.827
ISS 25 Sep 01:21:44 01:24:58 55° 180° (S) 01:28:12 437.550
BEESAT 3 25 Sep 01:28:53 01:31:44 18° 358° (N) 01:34:35 437.485
DUCHIFAT 1 25 Sep 01:35:03 01:38:18 21° 91° (E) 01:41:33 145.980
BEESAT 2 25 Sep 01:38:00 01:41:04 20° 349° (N) 01:44:08 435.950
TIGRISAT 25 Sep 01:38:27 01:42:35 32° 298° (WNW) 01:46:44 435.000
AIST 2D 25 Sep 01:43:33 01:47:05 69° 102° (ESE) 01:50:36 435.315
UKube-1 25 Sep 01:43:59 01:47:14 21° 57° (ENE) 01:50:30 .
50 SAT 25 Sep 01:47:29 01:50:21 28° 65° (ENE) 01:53:14 437.505
POLYITAN 1 25 Sep 01:50:06 01:54:03 34° 96° (E) 01:57:58 437.675
DX 1 25 Sep 01:52:28 01:56:22 33° 63° (ENE) 02:00:16 434.975-435.025
PRISM 25 Sep 01:52:54 01:56:32 32° 296° (WNW) 02:00:09 437.425
EO-79 25 Sep 01:54:02 01:58:01 36° 97° (E) 02:02:00 145.935-145.965
nSIGHT-1 25 Sep 01:59:02 02:02:11 50° 189° (S) 02:05:22 .
ESTCUBE 1 25 Sep 02:00:29 02:04:00 22° 269° (W) 02:07:32 437.505/2401.250
Tancredo 1 25 Sep 02:03:13 02:05:18 20° 206° (SSW) 02:07:23 437.200
BUGSAT 1 25 Sep 02:06:38 02:08:48 14° 87° (E) 02:10:56 437.445
QB50P2 25 Sep 02:07:58 02:12:11 53° 100° (E) 02:16:23 145.880/145.840
SPROUT 25 Sep 02:13:50 02:17:55 45° 261° (W) 02:22:02 437.525
FO-29 25 Sep 02:16:02 02:18:38 14° 314° (NW) 02:21:19 435.910
VELOX 1 25 Sep 02:23:10 02:27:26 48° 260° (W) 02:31:43 145.980
ITUPSAT 1 25 Sep 02:27:01 02:29:01 13° 46° (NE) 02:31:01 437.325
AO-85 25 Sep 02:33:37 02:36:38 19° 4° (N) 02:39:46 145.980
Oscar 19 25 Sep 02:34:10 02:37:09 15° 85° (E) 02:40:06 437.125/150
YUBILEINY 25 Sep 02:38:19 02:45:48 34° 279° (W) 02:53:19 435.215
NANOSAT C BR1 25 Sep 02:42:14 02:46:31 90° 69° (ENE) 02:50:48 145.865
O/OREOS (USA 219) 25 Sep 02:43:50 02:44:38 10° 96° (E) 02:45:25 437.305
UNISAT 6 25 Sep 02:54:46 02:54:56 10° 314° (NW) 02:55:07 437.425
ISS 25 Sep 02:58:07 03:01:10 35° 200° (SSW) 03:04:12 437.550
BEESAT 25 Sep 03:00:55 03:04:27 21° 54° (NE) 03:07:59 436.000
BEESAT 3 25 Sep 03:07:06 03:10:30 25° 22° (NNE) 03:13:51 437.485
DUCHIFAT 1 25 Sep 03:10:07 03:14:19 57° 290° (WNW) 03:18:29 145.980
BEESAT 2 25 Sep 03:16:57 03:20:04 20° 13° (NNE) 03:23:11 435.950
AIST 2D 25 Sep 03:17:48 03:19:50 15° 302° (WNW) 03:21:51 435.315
UKube-1 25 Sep 03:18:38 03:22:54 64° 256° (WSW) 03:27:12 .
50 SAT 25 Sep 03:20:00 03:22:50 26° 264° (W) 03:25:42 437.505
MOZHAYETS 4 25 Sep 03:21:26 03:25:16 26° 59° (ENE) 03:29:08
M-CUBED/EXP-1 PRIME 25 Sep 03:22:54 03:26:12 49° 108° (ESE) 03:29:22 437.505
POLYITAN 1 25 Sep 03:25:55 03:29:51 36° 296° (WNW) 03:33:46 437.675
DX 1 25 Sep 03:28:30 03:32:32 37° 263° (W) 03:36:35 434.975-435.025
EO-79 25 Sep 03:29:55 03:33:46 33° 296° (WNW) 03:37:36 145.935-145.965
nSIGHT-1 25 Sep 03:35:28 03:38:07 23° 208° (SSW) 03:40:46 .
BUGSAT 1 25 Sep 03:40:32 03:44:45 88° 290° (WNW) 03:49:00 437.445
QB50P2 25 Sep 03:44:14 03:47:43 24° 300° (WNW) 03:51:12 145.880/145.840
CUBESAT XI-V 25 Sep 03:52:21 03:55:06 16° 52° (NE) 03:57:52 437.345
AO-7 25 Sep 03:58:10 04:02:05 14° 79° (E) 04:05:59 .
ITUPSAT 1 25 Sep 04:01:13 04:05:53 54° 67° (ENE) 04:10:35 437.325
Gurwin Techsat 1B 25 Sep 04:06:43 04:11:58 54° 101° (E) 04:17:10 435.225
Oscar 19 25 Sep 04:12:07 04:17:20 81° 105° (ESE) 04:22:30 437.125/150
AO-85 25 Sep 04:14:19 04:18:08 32° 28° (NNE) 04:22:11 145.980
O/OREOS (USA 219) 25 Sep 04:18:38 04:23:06 65° 116° (ESE) 04:27:39 437.305
NANOSAT C BR1 25 Sep 04:19:02 04:21:39 16° 306° (NW) 04:24:17 145.865
ISS 25 Sep 04:35:41 04:36:58 12° 218° (SW) 04:38:13 437.550
BEESAT 25 Sep 04:36:57 04:41:43 79° 255° (WSW) 04:46:33 436.000
BEESAT 3 25 Sep 04:44:34 04:48:38 80° 46° (NE) 04:52:35 437.485
DUCHIFAT 1 25 Sep 04:47:53 04:49:08 11° 310° (NW) 04:50:23 145.980
BEESAT 2 25 Sep 04:54:44 04:58:42 46° 35° (NE) 05:02:37 435.950
MOZHAYETS 4 25 Sep 04:57:36 05:02:10 56° 259° (W) 05:06:46
M-CUBED/EXP-1 PRIME 25 Sep 04:57:56 05:00:23 19° 308° (NW) 05:02:45 437.505
KKS-1 25 Sep 05:09:14 05:12:53 26° 59° (ENE) 05:16:34 437.445
RS-15 25 Sep 05:14:47 05:23:06 22° 97° (E) 05:31:23 29.354- 29.394
BUGSAT 1 25 Sep 05:17:02 05:19:32 16° 306° (NW) 05:22:02 437.445
ITAMSAT 1 25 Sep 05:19:51 05:24:25 30° 94° (E) 05:28:59 435.822/435.867
CUBESAT XI-V 25 Sep 05:27:04 05:31:45 76° 73° (ENE) 05:36:28 437.345
STARS 25 Sep 05:30:29 05:33:39 20° 56° (NE) 05:36:50 437.465
ITUPSAT 1 25 Sep 05:40:00 05:44:00 26° 267° (W) 05:48:03 437.325
Gurwin Techsat 1B 25 Sep 05:47:02 05:51:43 32° 301° (WNW) 05:56:23 435.225
AO-7 25 Sep 05:48:47 05:56:56 55° 103° (ESE) 06:05:01 .
Oscar 19 25 Sep 05:52:11 05:56:08 23° 306° (NW) 06:00:04 437.125/150
AO-85 25 Sep 05:54:35 05:58:52 71° 228° (SW) 06:03:29 145.980
O/OREOS (USA 219) 25 Sep 05:59:03 06:02:55 27° 318° (NW) 06:06:50 437.305
BEESAT 25 Sep 06:17:57 06:20:19 14° 275° (W) 06:22:42 436.000
BEESAT 3 25 Sep 06:22:55 06:25:43 18° 244° (WSW) 06:28:26 437.485
BEESAT 2 25 Sep 06:32:38 06:36:23 36° 236° (WSW) 06:40:05 435.950
DOVE 4 25 Sep 06:37:39 06:40:34 18° 90° (E) 06:43:32 437.250
KKS-1 25 Sep 06:44:54 06:49:13 52° 259° (W) 06:53:34 437.445
ITAMSAT 1 25 Sep 06:59:06 07:04:11 54° 294° (WNW) 07:09:15 435.822/435.867
STARS 25 Sep 07:05:12 07:09:33 72° 256° (WSW) 07:13:57 437.465
CUBESAT XI-V 25 Sep 07:06:25 07:09:41 18° 272° (W) 07:12:57 437.345
XW-2C 25 Sep 07:16:52 07:18:29 12° 86° (E) 07:20:04 145.795 - 145.815
CUTE-I 25 Sep 07:18:27 07:21:25 15° 85° (E) 07:24:22 437.470
RS-15 25 Sep 07:21:05 07:33:09 65° 122° (ESE) 07:45:09 29.354- 29.394
STRAND 1 25 Sep 07:29:47 07:34:10 30° 59° (ENE) 07:38:35 437.568
LilacSat-2 25 Sep 07:30:02 07:32:40 17° 89° (E) 07:35:16 437.200
AO-85 25 Sep 07:36:19 07:38:40 14° 247° (WSW) 07:41:05 145.980
HO-68 25 Sep 07:39:23 07:41:59 12° 78° (ENE) 07:44:34 435.675
AO-7 25 Sep 07:41:49 07:49:44 51° 305° (NW) 07:57:37 .
O/OREOS (USA 219) 25 Sep 07:43:04 07:43:58 10° 342° (NNW) 07:44:52 437.305
KAITUO 1B 25 Sep 07:43:05 07:45:35 17° 89° (E) 07:48:03 145.475/437.950
